Location: ?
(35.3544°N, 139.4507°E)
Time: 12:57:21
(UTC+00:00)

BlueWalker 3 - Pass Details

Date: 03 August 2024
Orbit: 476 x 487 km, 53.2° (Epoch: 11 September)

Event Time Altitude Azimuth Distance (km) Brightness Sun altitude
Exits shadow 17:36:30 32° 113° (ESE) 860 3.2 -24.0°
Drops below altitude 10° 17:39:29 10° 64° (ENE) 1,688 5.6 -23.6°
Sets 17:41:48 0° 55° (NE) 2,574 6.9 -23.3°
